Location: Cheny Ridge Estates
(40.6074°N, 111.8785°W)
Time: 05:04:36
(UTC+00:00)

ISS - Pass Details

Date: 04 March 2021
Orbit: 418 x 422 km, 51.6° (Epoch: 16 April)

Event Time Altitude Azimuth Distance (km) Brightness Sun altitude
Exits shadow 12:23:21 11° 343° (NNW) 1,424 -1.2 -18.4°
Maximum altitude 12:24:35 13° 5° (N) 1,329 -1.1 -18.2°
Drops below altitude 10° 12:26:14 10° 35° (NE) 1,500 -0.4 -17.9°
Sets 12:29:16 0° 65° (ENE) 2,364 1.5 -17.3°
